Regional Weather Roundup
Issued by NWS Newport/Morehead, NC

Home | Current Version | Previous Version | Text Only | Print | Product List | Glossary On
Versions: 1 2 3 4 5 6 7 8 9 10 11 12 13 14 15 16 17 18 19 20 21 22 23 24 25 26 27 28 29 30 31 32 33 34 35 36 37 38 39 40 41 42 43 44 45 46 47 48 49 50
000
ASUS42 KMHX 232325
RWRMHX
WEATHER ROUNDUP FOR EASTERN NORTH CAROLINA
NATIONAL WEATHER SERVICE NEWPORT/MOREHEAD CITY NC
600 PM EST THU FEB 23 2017

NOTE: "FAIR" INDICATES FEW OR NO CLOUDS BELOW 12,000 FEET
WITH NO SIGNIFICANT WEATHER AND/OR OBSTRUCTIONS TO VISIBILITY

NCZ015>017-031-032-045>047-102-103-240000-
NORTH COAST

CITY           SKY/WX    TMP DP  RH WIND       PRES   REMARKS
EDENTON        CLOUDY    67  56  67 SE5       29.92R
ELIZABETH CITY MOCLDY    63  54  72 SE7       29.92R
KITTY HAWK     NOT AVBL
MANTEO         MOCLDY    59  55  88 SE6       29.93R

$$

NCZ045>047-081-094-103-104-240000-
CENTRAL COAST

CITY           SKY/WX    TMP DP  RH WIND       PRES   REMARKS
FRISCO         CLOUDY    68  58  70 SE9       29.91S HAZE

$$

NCZ095-097-098-100-101-240000-
SOUTHERN COAST

CITY           SKY/WX    TMP DP  RH WIND       PRES   REMARKS
BEAUFORT       PTCLDY    66  58  75 SE6       29.90R
CEDAR ISLAND   NOT AVBL
JACKSONVILLE   PTCLDY    67  58  72 SE7       29.89R
PINEY ISLAND   MOCLDY   N/A N/A N/A E6        29.90R
WILMINGTON     CLOUDY    67  57  70 E3        29.88R


$$

NCZ011>013-027>030-043-044-078>080-089-090>093-098-240000-
COASTAL PLAIN

CITY           SKY/WX    TMP DP  RH WIND       PRES   REMARKS
AHOSKIE          N/A     67  53  61 SE5       29.91R
CLINTON        CLEAR     69  56  64 CALM      29.89R
ELIZABETHTOWN  PTCLDY    70  56  61 SE3       29.88R
GOLDSBORO      PTCLDY    70  53  54 E3        29.86R
GREENVILLE     CLOUDY    68  55  64 SE7       29.92R
HAVELOCK       NOT AVBL
KENANSVILLE    CLOUDY    68  54  60 SE3       29.89R
KINSTON        PTCLDY    70  55  60 E6        29.89R
NEW BERN       PTCLDY    66  60  81 E7        29.91R
RICHLANDS      PTCLDY    68  57  68 SE5       29.89R
ROCKY MOUNT    CLEAR     67  53  61 CALM      29.88R
WASHINGTON     PTCLDY    65  56  73 SE7       29.91R
WHITEVILLE     PTCLDY    70  56  59 E6        29.87R

$$

AMZ130-135-150-152-154-156-158-170-250-252-270-ANZ085-086-088-633-658-670-240000-
MARINE OBSERVATIONS

STATION/POSITION TIME  TEMP    WIND        PRES    WAVE   SWELL
                       AIR SEA DIR/SP/G            HT/PER HT/PER
                 (UTC) (F)     (DEG/KT/KT) (MB)    (FT/S) (FT/S)
CHESAPEAKE LIGHT NOT AVBL
64 E VA BEACH    2250   59 55  130/  6/  6 1013.4    3/11   3/11
DUCK             2300   56 50  130/  5/  5 1012.9
2 E DUCK         2300      52                N/A     3/11   2/11
OREGON INLET     2300   56 55   80/  4/  6 1013.2
13E OREGON INLT  NOT AVBL
HATTERAS CG      2300   67 62  130/  7/ 10 1012.6
DIAMOND BUOY     2250   70 73  140/ 17/ 19 1012.7    5/ 6   2/10
CAPE LOOKOUT     2300   65     120/ 10/ 10 1012.0
BEAUFORT LAB     2300   65 57  120/  4/  7 1011.5
30 SE NEW RVR IN 2308   69     120/ 10/ 14 1011.8
30 SE NEW RVR IN 2313      69                N/A     5/ 7   2/11
27 SE WRIGHTSVLE 2308   68 67   60/  4/  8 1011.4
5 SE WRIGHTSVLE  2308   60 58   50/  6/  8 1011.7
225 S CAPE HAT   2250   68 70   80/ 19/ 23 1009.8    9/ 8   5/12
41 SE CHARLESTON 2250   71 70   70/ 14/ 17 1009.0   10/ 9   8/ 9

$$




USA.gov is the U.S. government's official web portal to all federal, state and local government web resources and services.